Regional Weather Roundup
Issued by NWS

Home | Current Version | Previous Version | Graphics & Text | Print | Product List | Glossary On
Versions: 1 2 3 4 5 6 7 8 9 10 11 12 13 14 15 16 17 18 19 20 21 22 23 24 25 26 27 28 29 30 31 32 33 34 35 36 37 38 39 40 41 42 43 44 45 46 47 48 49 50
000
ASUS43 KIND 171359
RWRIN

WEATHER ROUNDUP FOR INDIANA
NATIONAL WEATHER SERVICE INDIANAPOLIS IN
900 AM EST TUE JAN 17 2017

NOTE: "FAIR" INDICATES FEW OR NO CLOUDS BELOW 12,000 FEET WITH NO
SIGNIFICANT WEATHER AND/OR OBSTRUCTIONS TO VISIBILITY.

* - STATION DOES NOT REPORT WEATHER SUCH AS PRECIPITATION OR FOG.

+ - STATION NOT QUALITY CONTROLLED BY THE NATIONAL WEATHER SERVICE.
    USE DATA WITH CAUTION...ESPECIALLY DEWPOINT AND RELATIVE
    HUMIDITY OBSERVATIONS.

INZ001>003-010>013-019-020-171500-
NORTHWEST INDIANA

CITY           SKY/WX    TMP DP  RH WIND       PRES   REMARKS
GARY /AIRPORT/ CLOUDY    41  39  93 SW12G24   29.82R
KNOX *+        CLOUDY    41  36  81 W10       29.82R
MONTICELLO +   CLOUDY    46  43  91 SW12      29.86R

$$

LMZ046-743>745-171500-
SOUTHERN LAKE MICHIGAN

STATION/POSITION TIME  TEMP    WIND        PRES    WAVE
                       AIR SEA DIR/SP/G            HT
                 (UTC) (F)     (DEG/KT/KT) (MB)    (FT)

$$

INZ004-005-014>016-021>024-171500-
NORTH CENTRAL INDIANA

CITY           SKY/WX    TMP DP  RH WIND       PRES   REMARKS
GOSHEN         CLOUDY    49  45  86 SW16      29.78R
PERU/GRISSOM   CLOUDY    46  46 100 W15       29.84R
SOUTH BEND     FOG       42  42 100 SW14      29.79R VSB 1/4

$$

INZ006>009-017-018-025>027-171500-
NORTHEAST INDIANA

CITY           SKY/WX    TMP DP  RH WIND       PRES   REMARKS
ANGOLA *+      CLOUDY    43  34  70 CALM      29.75S VSB 1/4
FORT WAYNE     MOCLDY    51  47  86 W16       29.81R
KENDALLVILLE + CLOUDY    49  49 100 SW16      29.77R

$$

INZ028-029-035-036-043>045-051>053-171500-
WEST CENTRAL INDIANA

CITY           SKY/WX    TMP DP  RH WIND       PRES   REMARKS
CRAWFORDSVL +  CLOUDY    46  46 100 W12G18    29.89S
LAFAYETTE      MOCLDY    46  43  89 W14       29.87R
TERRE HAUTE    CLOUDY    49  43  80 W13       29.92S

$$

INZ030>032-037>040-046>048-054>057-064-065-171500-
CENTRAL INDIANA

CITY           SKY/WX    TMP DP  RH WIND       PRES   REMARKS
ANDERSON       MOCLDY    54  50  87 W17       29.88
COLUMBUS       PTCLDY    52  52 100 W6        29.91R
INDIANAPOLIS   MOCLDY    51  48  89 W10       29.89R
-EAGLE CREEK   CLOUDY    51  47  86 W8        29.88R
KOKOMO +       CLOUDY    48  46  93 W12       29.87R
MT COMFORT *+  CLOUDY    52  48  87 W10       29.88S
SHELBYVILLE    CLOUDY    53  49  86 W13       29.89R

$$

INZ033-034-041-042-049-050-058-059-171500-
EAST CENTRAL INDIANA

CITY           SKY/WX    TMP DP  RH WIND       PRES   REMARKS
MUNCIE         CLOUDY    54  49  83 W18       29.86R

$$

INZ060-061-067>069-081>083-085>088-171500-
SOUTHWEST INDIANA

CITY           SKY/WX    TMP DP  RH WIND       PRES   REMARKS
EVANSVILLE     CLOUDY    52  46  80 NW9       29.98R
HUNTINGBURG *+ CLOUDY    53  50  89 W8        29.96R

$$

INZ062-063-066-070>080-084-089>092-171500-
SOUTH CENTRAL AND SOUTHEAST INDIANA

CITY           SKY/WX    TMP DP  RH WIND       PRES   REMARKS
BLOOMINGTON    CLOUDY    52  47  83 W6        29.91R
MADISON *+     CLOUDY    59  54  82 SW6       29.93S
SEYMOUR +      CLOUDY    57  52  82 NW9G17    29.91R

$$




USA.gov is the U.S. government's official web portal to all federal, state and local government web resources and services.